Location: Caltech
(34.1382°N, 118.1253°W)
Time: 16:56:01
(UTC-07:00)

Cosmos 2251 Rocket - Visible Passes

Search period start: 04 August 2015 00:00
Search period end: 14 August 2015 00:00
Orbit: 765 x 792 km, 74.0° (Epoch: 03 August)

Date Brightness Start Highest point End Pass type
(mag) Time Alt. Az. Time Alt. Az. Time Alt. Az.
04 Aug 4.4 03:35:43 37° SE 03:37:01 45° ESE 03:42:07 10° NNE visible
04 Aug 5.1 05:16:14 12° WSW 05:19:36 19° WNW 05:23:19 10° NNW visible
05 Aug 5.1 03:02:59 26° ESE 03:03:21 27° E 03:07:50 10° NE visible
05 Aug 4.5 04:43:30 24° WSW 04:45:35 31° WNW 04:50:16 10° N visible
06 Aug 5.8 02:30:11 16° E 02:30:11 16° E 02:33:02 10° ENE visible
06 Aug 3.8 04:10:42 45° WSW 04:11:40 50° WNW 04:16:52 10° N visible
07 Aug 3.4 03:37:53 83° WNW 03:37:53 83° WNW 03:43:14 10° NNE visible
08 Aug 4.2 03:05:00 52° ENE 03:05:00 52° ENE 03:09:23 10° NNE visible
08 Aug 5.3 04:45:31 14° WNW 04:46:55 15° WNW 04:49:50 10° NNW visible
09 Aug 5.2 02:32:06 29° ENE 02:32:06 29° ENE 02:35:17 10° NE visible
09 Aug 4.9 04:12:37 24° WNW 04:12:50 24° WNW 04:17:04 10° N visible
10 Aug 5.9 01:59:11 16° ENE 01:59:11 16° ENE 02:00:48 10° NE visible
10 Aug 4.5 03:39:41 36° NW 03:39:41 36° NW 03:43:50 10° N visible
11 Aug 4.5 03:06:43 41° N 03:06:43 41° N 03:10:19 10° N visible
12 Aug 5.1 02:33:44 33° NNE 02:33:44 33° NNE 02:36:35 10° NNE visible
12 Aug 5.7 04:14:14 12° WNW 04:14:16 12° WNW 04:15:54 10° NW visible
13 Aug 5.7 02:00:43 22° NE 02:00:43 22° NE 02:02:37 10° NNE visible
13 Aug 5.5 03:41:13 18° NW 03:41:13 18° NW 03:43:45 10° NNW visible
